[[{"header":{"parameterUnit":"m.s-1","parameterCategory":1,"la1":30.2991,"la2":30.254,"lo1":-89.0895,"lo2":-89.0444,"dy":0.0017,"dx":0.0017,"nx":28,"ny":28,"refTime":"2024-04-10T21:00:00:Z","depth":0,"parameterNumber":2,"parameterNumberName":"U-component_of_WINDS"},"data":[0,0,0,0,0,0,0,0,0,0,0,0,0,0,0,0,0,0,0,0,0,0,0,0,0,0,0,0,0,0,0,0,0,0,0,0,0,0,0,0,0,0,0,0,0,0,0,0,0,0,0,0,0,0,0,0,0,0,9.936,9.9363,0,9.9663,9.9667,9.967,9.9584,9.9577,9.9571,9.9565,9.9881,9.9895,9.9909,0,0,0,0,0,0,0,0,0,0,0,0,0,9.8707,9.8719,9.9359,9.9363,9.9367,9.9663,9.9667,9.9671,9.9585,9.9577,9.957,9.9562,9.9876,9.9893,9.991,0,0,0,0,0,0,0,0,0,0,0,0,0,9.8999,9.8724,9.9358,9.9359,9.9362,9.9662,9.9667,9.9672,9.9586,9.9577,9.9568,9.9559,9.9871,9.9891,9.9912,10.0231,0,0,9.9977,9.9987,0,0,0,0,0,0,0,0,9.8982,9.9023,9.9355,9.936,9.9364,9.9576,9.9553,9.986,9.9589,9.9502,9.9565,9.9554,9.9787,9.9815,9.9892,10.0246,10.0259,9.9979,9.9992,10.0001,10.0007,0,0,0,0,0,0,0,9.8962,9.9009,9.948,9.936,9.9366,9.9345,9.9377,9.961,9.9693,9.9508,9.9503,9.954,9.9788,9.9872,9.9899,10.0264,9.9979,9.9998,10.0011,10.0019,10.0893,10.0903,0,0,0,0,0,0,9.8938,9.8993,9.947,9.9489,9.9146,9.9365,9.94,9.9517,9.969,9.9708,9.9547,9.9535,9.984,9.9874,9.991,10.0294,10.0001,10.0021,10.0033,10.0883,10.0896,10.0907,0,0,0,0,0,0,9.8925,9.8982,9.9458,9.924,9.9298,9.9386,9.9519,9.9528,9.9612,9.972,9.9734,9.9618,9.9834,9.988,10.0151,10.0304,10.0031,10.005,10.0871,10.0887,10.0901,10.1065,0,0,0,0,0,0,9.8906,9.8977,9.9099,9.9243,9.931,9.9694,9.9528,9.9541,9.9649,9.9635,9.979,9.9807,9.983,10.012,10.0173,10.0328,10.0067,10.0857,10.0878,10.0896,10.1046,10.1084,10.1117,0,0,0,0,0,9.8883,9.9134,9.9105,9.9163,9.9464,9.9702,9.9741,9.9762,9.9662,9.9785,9.9853,9.9802,10.0278,10.0149,10.0207,10.0371,10.0848,10.0872,10.0895,10.103,10.1077,10.1116,0,0,0,0,0,0,9.9007,9.9153,9.9123,9.9427,9.9553,9.9687,9.9843,9.981,9.9969,9.9949,9.9969,10.0005,10.0283,10.0354,10.0207,10.0688,10.0549,10.0585,10.0632,10.0677,10.0711,10.0688,10.0085,0,0,0,0,0,9.9069,9.925,9.9368,9.9625,9.9689,9.9756,9.986,9.9865,9.9997,10.005,10.0139,10.027,10.0449,10.0567,10.0737,10.1056,10.1088,10.1198,10.1233,10.1261,10.1293,10.1466,10.1516,10.0984,10.0984,10.0983,0,0,9.9201,9.9302,9.9415,9.9652,9.975,9.9938,9.9801,10.0005,10.0145,10.0082,10.0343,10.0413,10.056,10.0856,10.0991,10.0924,10.1446,10.1291,10.1313,10.1329,10.1495,10.1545,10.159,10.1,10.0997,10.0995,0,0,9.9535,9.963,9.9855,9.9955,10.0105,10.0147,10.0201,10.0341,10.0385,10.0647,10.0603,10.077,10.1078,10.1184,10.1279,10.1653,10.1612,10.1709,10.1893,10.2061,10.2103,10.214,10.2274,10.2321,10.1739,10.174,10.174,0,9.968,9.9959,9.9974,10.0183,10.0288,10.0238,10.0465,10.0563,10.0762,10.0836,10.0758,10.1143,10.1239,10.1559,10.165,10.1728,10.1791,10.1691,10.2096,10.2133,10.2168,10.2295,10.2346,10.1751,10.1749,10.1748,10.1747,0,10.0129,10.0324,10.0487,10.0679,10.0802,10.102,10.1068,10.1192,10.1186,10.1237,10.1505,10.1618,10.181,10.1886,10.1883,10.2207,10.216,10.2089,10.1949,10.2229,10.2349,10.2398,10.1766,10.1762,10.1759,10.1756,0,0,10.0552,10.0747,10.0807,10.0893,10.1054,10.1205,10.142,10.1606,10.1712,10.1851,10.2032,10.2293,10.2228,10.2335,10.2344,10.2492,10.2781,10.2402,10.2406,10.2468,10.3143,10.3196,10.3252,10.2754,10.2763,10.2771,10.3131,0,10.09,10.1276,10.1296,10.1638,10.1818,10.1772,10.1959,10.2079,10.2132,10.2293,10.2352,10.2537,10.2437,10.2501,10.2646,10.2715,10.2916,10.2689,10.2923,10.2931,10.2887,10.3315,10.3371,10.3705,10.3178,10.3186,10.3192,0,10.1357,10.1508,10.1867,10.2002,10.2078,10.2246,10.2418,10.2572,10.2707,10.2735,10.2855,10.2842,10.3063,10.2915,10.3219,10.3064,10.3161,10.3209,10.3223,10.3245,10.3078,10.3349,10.3813,10.3863,10.3266,10.326,10.3254,0,10.1628,10.1921,10.2174,10.2249,10.2413,10.2531,10.2605,10.273,10.2841,10.2992,10.3064,10.324,10.3336,10.3472,10.3507,10.3396,10.3812,10.3666,10.3841,10.3841,10.3931,10.3925,10.4417,10.3994,10.3993,10.3992,10.3991,0,10.2015,10.2237,10.2298,10.2454,10.2701,10.2722,10.2966,10.3032,10.3144,10.3312,10.3284,10.3443,10.3479,10.3645,10.3674,10.3922,10.3966,10.3995,10.4,10.3998,10.3994,10.4062,10.4039,10.4006,10.4003,10.4,10.3998,0,10.2361,10.241,10.2683,10.2814,10.2853,10.3029,10.3142,10.3292,10.3341,10.3554,10.3605,10.3683,10.3877,10.3925,10.4157,10.4176,10.4469,10.4452,10.4423,10.4422,10.4594,10.4577,10.5147,10.5222,10.475,10.4754,10.4758,0,10.2604,10.2774,10.2923,10.3033,10.3111,10.3289,10.3401,10.3428,10.3546,10.3712,10.3842,10.4032,10.4185,10.4498,10.4575,10.4753,10.474,10.4927,10.4766,10.4758,10.4742,10.4731,10.4748,10.4957,10.4963,10.4967,10.497,0,10.3032,10.3048,10.321,10.3381,10.3515,10.3652,10.3782,10.3874,10.3919,10.4054,10.425,10.4369,10.4605,10.4794,10.4972,10.5049,10.5019,10.502,10.507,10.5069,10.5045,10.5059,10.4506,10.5007,10.5003,10.5,10.4998,10.4997,10.3334,10.3482,10.361,10.3791,10.3891,10.4014,10.416,10.4227,10.4391,10.4584,10.459,10.4805,10.4934,10.517,10.5257,10.5425,10.5369,10.5441,10.5459,10.5477,10.5491,10.5018,10.5458,10.5457,10.5456,10.5455,10.5455,0,10.376,10.3839,10.4006,10.4188,10.4331,10.4287,10.4429,10.4551,10.474,10.4863,10.5014,10.524,10.5423,10.5515,10.5696,10.5814,10.5804,10.586,10.5852,10.587,10.5532,10.5471,10.5865,10.5865,10.5865,10.5865,10.5865,10.5865,10.3998,10.4245,10.4276,10.4574,10.4652,10.486,10.4945,10.5058,10.5155,10.5409,10.556,10.5618,10.5729,10.5918,10.6084,10.6106,10.6174,10.6238,10.6253,10.5936,10.5894,10.5854,10.5796,10.6253,10.6253,10.6577,10.658,10.6582]},{"header":{"parameterUnit":"m.s-1","parameterCategory":1,"la1":30.2991,"la2":30.254,"lo1":-89.0895,"lo2":-89.0444,"dy":0.0017,"dx":0.0017,"nx":28,"ny":28,"refTime":"2024-04-10T21:00:00:Z","depth":0,"parameterNumber":3,"parameterNumberName":"V-component_of_WINDS"},"data":[0,0,0,0,0,0,0,0,0,0,0,0,0,0,0,0,0,0,0,0,0,0,0,0,0,0,0,0,0,0,0,0,0,0,0,0,0,0,0,0,0,0,0,0,0,0,0,0,0,0,0,0,0,0,0,0,0,0,2.039,2.039,0,2.0433,2.0434,2.0434,2.0416,2.0415,2.0414,2.0413,2.0458,2.046,2.0462,0,0,0,0,0,0,0,0,0,0,0,0,0,2.029,2.0292,2.039,2.039,2.0391,2.0433,2.0434,2.0434,2.0416,2.0415,2.0414,2.0412,2.0457,2.0459,2.0462,0,0,0,0,0,0,0,0,0,0,0,0,0,2.0333,2.0292,2.0389,2.0387,2.0387,2.0433,2.0434,2.0434,2.0416,2.0415,2.0413,2.0412,2.0456,2.0459,2.0462,2.0514,0,0,2.0472,2.0474,0,0,0,0,0,0,0,0,2.0331,2.0337,2.0387,2.0387,2.0387,2.0418,2.0415,2.0461,2.0417,2.0405,2.0413,2.0411,2.0446,2.045,2.0461,2.0516,2.0518,2.0473,2.0475,2.0476,2.0477,0,0,0,0,0,0,0,2.0328,2.0335,2.0407,2.0387,2.0388,2.0383,2.0387,2.0423,2.0434,2.0406,2.0405,2.041,2.0445,2.0458,2.0462,2.0518,2.0472,2.0475,2.0477,2.0479,2.0615,2.0617,0,0,0,0,0,0,2.0325,2.0333,2.0405,2.0408,2.0355,2.0386,2.0391,2.0409,2.0433,2.0435,2.0412,2.0409,2.0453,2.0458,2.0464,2.0524,2.0476,2.0479,2.0481,2.0614,2.0616,2.0618,0,0,0,0,0,0,2.0323,2.0332,2.0404,2.037,2.0379,2.0389,2.041,2.0411,2.0424,2.0437,2.0439,2.0423,2.0452,2.0459,2.0501,2.0526,2.048,2.0483,2.0612,2.0614,2.0617,2.0647,0,0,0,0,0,0,2.032,2.0331,2.0351,2.0371,2.0381,2.0441,2.0412,2.0413,2.0429,2.0427,2.0448,2.045,2.0452,2.0496,2.0504,2.0529,2.0486,2.061,2.0613,2.0616,2.0644,2.065,2.0656,0,0,0,0,0,2.0316,2.0358,2.0352,2.0361,2.0406,2.0442,2.0448,2.0449,2.0431,2.0451,2.046,2.045,2.0522,2.0501,2.0509,2.0536,2.0608,2.0612,2.0616,2.0641,2.0649,2.0656,0,0,0,0,0,0,2.0341,2.0361,2.0354,2.0403,2.0421,2.0439,2.0464,2.0457,2.0481,2.0477,2.0477,2.0482,2.0525,2.0535,2.0511,2.0586,2.0562,2.0568,2.0579,2.0586,2.0592,2.0589,2.0489,0,0,0,0,0,2.0352,2.038,2.0396,2.0437,2.0447,2.0454,2.047,2.0469,2.0487,2.0495,2.0507,2.0525,2.0551,2.0569,2.0595,2.0645,2.0649,2.0667,2.0673,2.0678,2.0683,2.071,2.0718,2.063,2.063,2.063,0,0,2.0376,2.039,2.0408,2.0443,2.0457,2.0485,2.0461,2.0492,2.0514,2.05,2.054,2.0549,2.0569,2.0616,2.0636,2.0625,2.0708,2.0683,2.0687,2.0689,2.0714,2.0723,2.073,2.0633,2.0632,2.0632,0,0,2.0433,2.0447,2.0483,2.0497,2.0518,2.0522,2.053,2.0549,2.0555,2.0595,2.0585,2.061,2.0656,2.067,2.0684,2.0745,2.0736,2.0753,2.0785,2.081,2.0817,2.0823,2.0845,2.0852,2.0758,2.0758,2.0758,0,2.046,2.0503,2.0502,2.0534,2.055,2.0538,2.0574,2.0588,2.0616,2.0627,2.0613,2.067,2.0683,2.0732,2.0746,2.0758,2.0767,2.0751,2.0816,2.0822,2.0828,2.0848,2.0857,2.076,2.076,2.076,2.076,0,2.0534,2.0564,2.059,2.0618,2.0636,2.067,2.0674,2.0692,2.0689,2.0695,2.0735,2.075,2.0777,2.0789,2.0786,2.0837,2.0829,2.0816,2.0792,2.0838,2.0857,2.0865,2.0763,2.0762,2.0762,2.0761,0,0,2.061,2.0635,2.0645,2.0656,2.0678,2.0701,2.0734,2.0761,2.0776,2.0796,2.0823,2.0861,2.0849,2.0864,2.0863,2.0885,2.0932,2.0869,2.0869,2.088,2.0988,2.0998,2.1007,2.0926,2.0927,2.0928,2.0986,0,2.0668,2.0727,2.0726,2.078,2.0807,2.0795,2.0824,2.084,2.0845,2.0869,2.0875,2.0902,2.0884,2.0893,2.0914,2.0922,2.0954,2.0917,2.0951,2.0952,2.0947,2.1017,2.1028,2.1082,2.0994,2.0995,2.0996,0,2.0745,2.0767,2.0823,2.084,2.0851,2.0877,2.0901,2.0924,2.0941,2.0943,2.096,2.0954,2.0987,2.0961,2.1006,2.0981,2.0995,2.1,2.1002,2.1006,2.0977,2.1023,2.1099,2.1108,2.1008,2.1007,2.1006,0,2.0795,2.0838,2.0876,2.0887,2.0907,2.0925,2.0935,2.0951,2.0966,2.0987,2.0997,2.1021,2.1034,2.1053,2.1054,2.1035,2.1099,2.1073,2.1101,2.1101,2.1116,2.1115,2.1196,2.1124,2.1124,2.1124,2.1124,0,2.0861,2.0895,2.0899,2.0923,2.0961,2.096,2.0997,2.1005,2.1019,2.1043,2.1034,2.1058,2.1058,2.1081,2.1082,2.1118,2.1125,2.1127,2.1127,2.1128,2.1128,2.1137,2.1133,2.1126,2.1125,2.1125,2.1125,0,2.0922,2.0926,2.0968,2.0983,2.0988,2.1015,2.1028,2.1051,2.1055,2.1086,2.1093,2.11,2.1127,2.1129,2.1161,2.1161,2.1205,2.1201,2.12,2.1199,2.1227,2.1224,2.1317,2.1328,2.1249,2.125,2.125,0,2.0965,2.0991,2.1009,2.1025,2.1035,2.1061,2.1077,2.1076,2.1092,2.1113,2.1133,2.1159,2.118,2.1224,2.1231,2.1255,2.1251,2.1282,2.1254,2.1254,2.1251,2.1249,2.1252,2.1287,2.1288,2.1289,2.1289,0,2.1039,2.1039,2.1062,2.1086,2.1105,2.1123,2.114,2.1154,2.1155,2.1174,2.1201,2.1217,2.1249,2.1275,2.1298,2.1306,2.1298,2.1298,2.1305,2.1307,2.1305,2.1306,2.1214,2.1296,2.1295,2.1295,2.1294,2.1294,2.1092,2.1114,2.113,2.1156,2.1169,2.1185,2.1206,2.1213,2.1236,2.1261,2.1259,2.1289,2.1305,2.1335,2.1345,2.1368,2.1358,2.1369,2.1372,2.1375,2.1377,2.1301,2.1372,2.1372,2.1372,2.1372,2.1372,0,2.1165,2.1175,2.1198,2.1222,2.1242,2.1232,2.125,2.1268,2.1294,2.1309,2.133,2.1361,2.1385,2.1394,2.1418,2.1434,2.1431,2.1441,2.1439,2.1441,2.1385,2.1376,2.1443,2.1443,2.1443,2.1443,2.1443,2.1443,2.1206,2.1243,2.1245,2.1288,2.1297,2.1327,2.1338,2.1352,2.1364,2.1399,2.1419,2.1425,2.1437,2.1461,2.1483,2.1484,2.1493,2.1505,2.1505,2.1453,2.1445,2.1439,2.143,2.1507,2.1507,2.1559,2.1559,2.156]}]]